Location: Kawakawa
(35.3830°S, 174.0670°E)
Time: 19:39:25
(UTC+13:00)

Explorer 7 - Pass Details

Date: 15 December 2019
Orbit: 485 x 679 km, 50.3° (Epoch: 23 January)

Event Time Altitude Azimuth Distance (km) Brightness Sun altitude
Rises 11:42:09 0° 252° (WSW) 2,615 10.0 65.8°
Reaches altitude 10° 11:45:21 10° 281° (W) 1,753 9.3 66.4°
Maximum altitude 11:47:11 13° 308° (NW) 1,591 9.2 66.8°
Drops below altitude 10° 11:49:03 10° 336° (NNW) 1,788 9.6 67.1°
Sets 11:52:24 0° 4° (N) 2,718 10.5 67.7°
